Theta_e
327 331 329 330 330 327 325 324 324 325 327 325 322 320 324 327 318 315 326 331 326 329 336 334 335 337 337 336 337 337 338 338 338 348 357 360 361 364 365 362 360 359 358 356 358 357 355 352 350 348 344 341 341 340 338 337 336 336 337 340 340 339 338 336 336 335 335 335 334 334 334 334 334 334 333 333 333 332 331 330 329 329 329 329 330 330 331
325 329 329 330 329 325 326 326 326 328 327 326 326 326 328 329 324 325 332 333 333 336 337 335 335 337 336 336 336 335 336 337 336 343 355 358 358 362 363 362 360 359 359 359 360 358 354 352 349 346 343 343 342 340 338 338 338 337 339 341 342 340 338 337 337 336 336 336 335 334 334 334 334 334 334 333 333 332 330 329 329 329 330 330 330 329 330
320 326 328 327 328 327 323 324 328 330 327 326 327 328 329 329 327 330 334 329 331 337 337 335 336 339 340 337 336 336 335 335 336 340 348 355 357 359 360 361 360 360 360 360 361 358 353 351 348 345 344 344 342 339 336 337 339 338 340 343 344 341 339 337 337 337 337 336 335 335 335 335 335 334 334 333 333 331 330 329 330 330 330 330 330 329 330
315 324 326 325 329 326 320 320 324 326 325 325 326 328 330 329 327 330 328 323 329 336 335 335 337 338 339 336 335 336 334 334 340 342 343 350 354 356 359 361 360 361 361 360 360 357 352 350 349 347 345 343 341 338 336 337 338 339 340 343 344 342 340 338 336 336 336 336 335 335 335 336 335 335 334 333 332 331 330 329 330 330 330 330 330 330 331
315 323 326 325 324 319 314 319 324 327 327 328 328 330 331 333 332 329 325 326 332 336 335 335 338 336 335 334 334 337 339 343 347 347 345 346 350 355 357 359 360 359 359 360 359 357 352 349 348 347 345 342 342 341 338 337 338 338 341 343 343 343 341 338 337 337 335 335 336 336 336 336 335 335 334 333 332 330 329 329 329 330 330 330 330 330 330
315 320 324 323 319 314 316 325 331 330 330 328 328 329 331 335 336 333 332 333 335 334 334 335 336 334 334 336 338 341 345 345 343 345 346 347 349 353 354 355 357 358 359 359 358 355 352 349 348 346 343 344 344 342 339 338 338 339 342 343 343 342 341 338 337 336 335 336 336 336 337 336 335 335 334 333 331 330 329 329 329 330 329 329 328 328 329
316 319 321 318 315 318 326 332 333 331 331 332 331 331 332 333 335 335 335 334 333 334 334 333 334 335 335 337 340 341 343 342 341 344 348 349 350 352 353 354 356 357 358 359 356 354 350 347 345 343 343 345 345 342 340 340 339 340 343 343 342 341 339 338 338 336 336 336 336 336 337 336 336 335 334 333 331 330 329 329 330 330 329 328 328 327 327
319 317 317 317 322 330 336 338 335 333 335 333 329 328 331 332 333 335 335 334 334 334 334 333 334 335 336 337 339 341 342 343 341 342 345 348 349 351 353 354 355 357 358 357 355 353 350 346 343 343 344 344 343 341 342 340 340 343 343 343 342 340 338 338 338 336 337 336 337 337 337 336 336 336 334 333 331 330 330 330 330 330 329 327 327 327 328
321 315 314 321 327 330 334 337 336 334 334 334 330 326 329 334 335 333 334 335 335 334 333 333 333 336 337 335 335 338 343 343 343 342 344 345 348 351 353 352 354 356 354 355 355 352 348 346 343 343 343 343 341 341 341 340 340 343 344 343 342 339 338 338 337 337 337 337 337 337 337 337 337 336 334 332 330 330 330 330 330 330 328 328 327 327 328
323 318 315 321 322 321 327 334 337 335 332 333 335 328 328 335 334 332 334 337 334 334 334 333 335 338 337 334 331 336 340 342 343 343 342 343 348 351 353 352 354 354 354 354 353 351 348 346 344 342 342 343 343 342 341 339 339 343 344 343 340 339 338 337 336 337 337 337 337 337 337 337 336 335 334 332 331 330 329 329 330 330 329 328 328 328 328
321 318 316 319 317 319 329 337 337 334 331 333 335 327 324 332 334 331 334 334 333 334 333 332 337 338 333 331 333 338 340 339 340 342 342 344 349 352 352 353 354 356 355 354 352 351 349 347 346 344 342 343 343 343 341 339 339 342 343 341 340 339 338 337 337 337 337 337 337 336 336 336 335 334 333 331 330 330 329 330 330 328 328 328 327 328 328
319 319 317 318 319 324 336 339 333 332 334 334 331 320 321 330 334 333 333 334 333 333 332 334 337 336 333 333 337 339 337 337 340 344 345 346 349 351 351 353 355 356 356 354 352 350 349 349 348 346 344 344 342 343 343 341 339 339 341 341 339 339 338 337 337 337 337 337 337 335 334 335 334 334 333 331 331 331 330 329 328 328 328 327 328 328 329
318 318 316 317 322 332 339 334 332 335 334 329 323 319 326 333 333 333 333 332 332 331 333 334 334 334 334 335 337 337 334 337 343 345 347 349 350 350 349 351 355 356 355 354 351 349 350 351 350 347 348 348 346 345 346 345 341 339 339 339 339 339 339 337 336 337 339 338 337 336 335 334 334 333 333 332 332 331 330 328 328 328 328 328 329 328 329
318 320 317 315 321 335 338 331 332 333 328 324 323 330 337 335 332 333 333 332 333 332 332 333 334 334 334 333 335 335 334 340 344 344 346 347 346 346 349 352 353 353 352 352 350 348 348 350 350 349 350 351 350 348 347 346 344 341 340 339 339 340 340 339 337 338 338 337 337 335 335 335 334 334 334 333 332 331 331 329 329 329 329 329 329 329 329
319 318 318 316 321 336 337 330 334 333 329 330 336 340 338 334 333 334 334 332 334 333 332 335 334 334 334 334 336 336 337 342 342 342 344 345 345 346 349 350 348 347 346 347 345 342 342 344 346 349 351 351 351 349 347 347 346 343 341 340 340 341 341 341 340 338 338 338 337 335 335 335 335 334 335 335 334 333 331 331 330 330 330 330 330 330 330
321 316 320 325 329 336 333 332 336 336 333 338 341 337 334 333 333 333 333 332 333 333 335 339 336 335 336 337 335 337 341 341 342 342 343 344 344 345 344 342 341 341 342 343 341 338 339 339 343 348 351 350 350 349 348 347 345 345 343 341 341 343 343 343 342 339 338 337 337 336 336 336 335 335 336 336 335 334 332 332 332 331 331 330 330 330 329
332 327 333 337 335 335 333 333 337 336 334 335 335 333 334 334 334 334 333 334 334 333 337 340 338 336 336 336 336 341 341 341 342 343 343 343 343 341 337 338 339 339 341 342 342 342 345 346 348 349 348 347 347 347 347 345 344 344 344 342 342 344 344 344 342 339 338 338 337 336 337 336 336 336 336 336 336 334 330 330 331 332 332 331 331 330 329
337 336 337 337 335 334 332 332 334 332 333 334 335 336 338 337 337 337 336 337 337 335 336 340 340 337 336 336 338 341 340 341 344 344 345 343 340 337 338 342 342 339 339 341 342 344 348 348 349 348 346 345 346 345 345 344 343 343 344 344 345 345 343 341 340 339 339 337 336 337 337 335 334 334 334 335 335 332 328 328 331 332 331 330 329 328 328
333 333 335 335 333 333 333 333 333 331 331 333 335 337 339 339 339 338 338 339 340 339 338 340 340 338 337 338 340 341 342 344 346 346 347 345 342 341 344 345 343 340 339 339 339 340 344 345 346 346 345 344 345 344 344 342 341 343 346 345 345 345 343 340 339 339 338 336 336 337 336 333 332 332 333 334 333 330 327 327 330 330 329 328 328 328 328
334 335 336 333 331 332 333 331 330 329 330 332 334 335 337 338 338 338 338 339 338 338 339 339 340 338 338 339 342 343 344 346 347 346 347 346 346 346 345 343 342 342 341 341 341 342 343 344 344 341 339 338 337 337 339 338 337 341 344 345 344 343 343 341 339 337 336 336 336 336 334 332 332 333 334 332 329 328 328 329 330 330 328 328 328 328 328
334 336 336 333 332 333 331 328 327 328 330 332 334 334 335 336 337 338 338 338 337 338 338 339 340 340 338 340 343 341 339 342 344 345 346 348 347 347 345 344 344 344 342 342 341 341 342 342 340 339 338 336 333 331 331 333 335 337 341 344 343 341 340 339 337 335 335 336 336 335 333 332 331 332 332 331 331 330 330 331 331 329 327 327 327 327 326
332 336 336 334 334 334 331 327 327 328 330 332 332 333 334 335 335 336 337 336 337 337 337 339 341 341 340 342 342 338 336 339 342 344 347 347 344 344 343 342 342 341 340 339 338 339 340 340 339 337 336 336 335 332 330 331 334 336 339 342 340 337 335 335 334 334 335 335 333 332 331 331 331 328 326 328 331 332 329 328 328 326 324 324 324 324 324
332 332 332 332 333 334 331 328 327 328 330 330 328 329 331 331 332 334 336 335 335 336 336 338 340 342 343 342 340 338 337 339 342 344 344 342 340 338 338 339 340 340 339 338 338 339 339 338 337 336 335 335 335 333 332 333 335 336 338 338 336 333 332 332 333 332 332 332 332 330 329 332 332 329 326 324 326 327 326 324 324 323 322 321 321 321 321
329 327 327 328 330 330 327 326 326 328 330 328 326 326 327 327 329 330 334 337 336 336 336 336 339 341 342 340 339 339 339 340 341 341 338 337 336 335 335 337 339 339 339 339 339 339 338 336 336 336 334 334 334 333 332 334 335 334 335 336 335 333 332 331 333 332 331 331 331 330 329 331 332 330 328 325 323 321 321 320 320 320 320 320 319 319 319
325 324 325 326 325 326 325 325 325 327 328 327 325 325 326 326 327 328 331 336 336 335 334 334 335 337 337 337 337 338 339 340 340 340 338 337 334 333 334 337 339 339 340 338 337 338 337 336 336 335 334 334 334 333 332 333 333 333 335 335 335 333 332 331 332 333 333 332 332 330 329 331 331 329 329 327 324 320 317 317 318 318 319 319 318 318 318
323 322 322 322 323 324 324 324 325 326 325 325 325 325 326 326 327 327 328 331 333 333 332 331 331 334 335 335 335 336 338 340 340 338 337 334 332 332 333 336 338 338 337 337 337 337 336 335 335 335 333 333 334 333 332 331 333 333 333 334 334 333 333 332 332 332 332 332 332 331 330 330 331 329 328 328 326 323 319 318 317 317 316 316 317 316 316
320 319 319 319 321 322 323 324 324 324 322 322 324 324 324 325 326 326 326 328 330 332 331 330 332 333 334 335 335 336 339 340 337 335 334 332 331 331 333 335 337 335 335 336 336 334 333 333 333 333 333 333 334 334 332 332 334 334 333 333 333 332 332 332 331 330 330 330 330 330 330 331 333 331 328 326 326 324 323 322 321 320 317 316 316 316 315
317 317 317 318 320 320 322 322 322 322 322 322 323 323 324 324 324 324 324 325 326 329 329 330 332 333 335 337 337 337 337 337 334 333 333 332 330 331 334 335 335 333 334 336 335 332 332 334 333 333 334 334 334 333 331 332 334 333 332 331 331 330 330 331 331 330 329 330 330 330 331 331 332 330 327 326 327 327 326 325 324 323 321 317 316 315 314
316 317 319 320 321 321 321 321 322 322 322 322 323 322 322 321 321 322 323 323 324 325 327 328 330 331 333 334 334 333 335 334 332 333 335 333 332 333 334 333 333 333 333 334 334 334 335 335 334 334 333 333 332 331 330 331 331 330 330 330 330 330 329 330 331 330 329 329 330 330 330 330 329 329 328 327 327 327 327 325 324 323 322 319 317 315 315
319 320 320 321 320 320 320 321 321 322 321 322 322 322 320 320 320 321 322 323 323 324 326 328 330 332 332 331 331 331 331 330 331 335 336 334 334 334 333 332 332 333 333 335 335 335 334 333 332 332 331 330 330 329 329 330 329 329 330 330 330 331 330 328 328 329 328 327 327 328 328 328 328 328 327 325 324 324 323 322 321 321 320 318 316 316 315
320 320 320 320 320 319 320 321 321 322 322 322 322 323 322 323 322 322 322 323 323 324 325 327 329 332 333 332 330 329 328 329 334 337 337 335 335 335 333 333 332 333 334 334 334 333 332 331 330 330 329 328 328 328 327 328 329 329 329 329 329 329 328 325 325 326 326 325 325 326 327 327 326 325 324 323 322 321 320 320 319 319 317 314 313 313 312
321 320 320 321 321 321 322 323 323 323 322 322 323 323 322 323 323 323 322 322 322 323 325 325 327 331 333 332 330 331 333 336 338 338 336 336 335 335 333 333 332 334 333 332 331 330 329 329 328 328 328 327 326 326 326 327 328 328 327 328 328 327 326 325 325 326 326 325 325 326 326 325 324 323 322 321 319 319 319 318 317 316 315 313 312 311 310
322 322 323 324 324 324 324 324 324 323 322 321 321 321 321 321 322 322 322 323 323 323 324 325 327 329 332 332 333 335 338 339 338 337 336 335 335 334 333 332 331 332 331 330 329 328 328 327 327 327 326 325 325 324 324 325 326 326 326 327 327 325 324 325 325 325 325 325 324 323 322 322 321 321 321 319 318 318 318 317 316 315 313 313 311 309 307
322 322 322 322 322 322 322 322 322 321 321 320 320 321 321 322 322 322 323 324 323 323 324 326 326 326 329 334 335 336 335 336 336 336 336 335 334 332 332 330 330 329 328 327 326 326 325 325 326 325 324 324 323 323 323 324 325 325 326 327 326 324 323 324 324 324 324 323 322 321 321 320 319 320 319 318 318 318 318 317 317 315 313 311 310 308 307
320 320 320 319 319 319 319 319 320 320 320 320 320 320 320 322 323 325 325 324 324 324 326 325 324 324 328 334 336 333 331 333 335 336 335 333 332 331 330 329 328 327 326 325 325 324 325 325 324 323 323 323 322 323 324 324 325 325 325 325 324 323 322 322 322 322 322 322 321 320 320 319 319 319 318 318 318 317 316 315 314 313 312 311 310 309 307
318 318 318 319 319 318 318 318 319 320 320 321 321 321 321 323 324 325 324 325 324 325 326 325 324 325 328 333 335 333 331 333 335 334 333 331 330 329 328 327 326 326 325 324 324 324 324 323 321 321 322 322 322 323 323 323 324 324 323 323 323 322 321 321 321 321 320 320 320 319 318 317 317 316 316 316 315 314 313 312 311 311 311 311 310 309 308
320 319 320 320 321 321 321 321 322 323 323 323 323 323 323 324 325 324 324 325 324 325 326 325 326 326 328 330 332 332 332 333 332 331 330 329 328 327 326 326 325 325 324 324 323 323 323 321 319 320 322 322 322 322 321 321 322 322 321 321 321 320 320 320 319 319 319 319 318 317 315 315 314 313 313 313 313 312 312 311 311 310 310 310 309 308 308
321 321 322 322 322 324 323 323 324 324 324 324 325 324 325 325 325 325 325 325 325 325 326 326 326 328 329 331 332 331 331 330 329 329 328 327 325 326 326 326 324 324 324 323 323 322 321 320 320 321 322 321 320 320 320 320 321 320 320 320 320 320 319 319 319 318 318 317 316 315 314 314 314 313 313 313 312 312 310 311 310 310 309 309 308 307 307
321 321 322 323 323 324 324 324 324 324 324 324 325 325 325 325 325 325 326 326 326 328 328 328 329 329 330 331 331 329 327 327 327 326 326 325 325 325 325 324 324 323 322 322 321 320 320 320 321 321 320 319 319 319 318 318 318 318 318 318 317 317 316 316 316 315 315 314 314 313 313 313 312 312 312 312 311 310 310 309 309 309 308 308 307 307 306
320 321 322 323 323 323 324 324 324 323 323 324 324 325 326 326 326 326 327 328 328 329 329 329 331 331 331 330 329 327 326 325 325 325 324 324 324 324 323 322 321 320 320 320 320 319 319 320 320 320 319 318 317 316 315 315 315 315 315 315 314 313 313 313 313 312 312 313 313 312 311 311 311 311 310 310 310 309 309 308 307 308 308 308 307 306 306
321 322 323 324 325 325 325 325 325 324 324 323 324 326 328 329 330 330 330 330 330 329 329 330 330 330 328 327 326 325 324 324 324 324 323 323 323 323 322 321 320 319 319 319 319 318 318 319 319 318 318 317 316 315 314 313 314 315 315 314 314 313 313 313 313 313 313 313 312 311 311 311 311 310 309 309 308 308 308 308 307 307 308 307 306 306 306
323 324 324 324 325 326 327 326 325 325 325 325 325 326 327 328 329 330 330 329 329 329 329 329 328 327 325 325 324 324 323 323 323 323 322 322 322 322 321 320 319 319 319 318 317 316 317 317 317 316 315 315 314 313 312 312 313 314 314 314 313 313 313 313 312 312 312 311 311 310 310 310 309 309 308 308 307 307 308 307 307 307 307 306 306 306 305
321 323 323 323 323 324 325 325 325 325 326 327 327 326 327 327 328 328 328 327 327 327 326 326 325 324 323 323 323 323 323 322 322 322 322 321 321 321 320 320 319 319 318 317 317 316 316 316 315 314 313 312 309 307 308 310 311 312 312 312 311 311 311 311 311 311 310 310 310 309 309 308 308 308 307 307 307 307 307 306 306 306 306 306 305 305 304
321 322 323 323 322 322 323 324 324 324 325 326 325 326 326 326 326 326 326 325 325 324 324 324 323 323 322 322 322 322 322 322 322 322 322 321 320 320 320 319 318 317 316 317 317 316 315 313 311 309 308 306 304 304 307 309 310 309 310 310 311 310 310 310 310 309 309 308 308 308 308 307 307 307 306 306 306 306 306 306 306 305 305 304 304 304 303
322 322 323 323 323 323 324 324 323 323 323 323 324 324 324 324 324 324 324 324 323 323 323 323 323 322 322 321 321 322 322 321 321 321 321 320 320 319 319 318 316 315 315 316 315 314 313 310 307 304 303 303 302 305 307 308 307 308 308 308 309 310 310 309 308 308 308 307 307 306 306 306 306 306 305 305 305 305 305 305 305 305 304 304 304 303 303
321 322 323 324 324 323 323 324 323 323 323 322 323 323 323 323 323 323 323 323 323 323 322 322 322 322 322 321 321 321 321 321 320 320 319 319 319 318 317 317 315 314 313 314 313 312 310 307 303 302 302 303 304 307 308 307 306 307 307 307 307 309 309 308 308 307 307 306 306 305 305 305 305 305 305 304 304 305 304 304 304 304 303 303 303 303 303
322 322 322 322 322 322 322 323 323 324 324 323 323 323 323 323 322 322 322 323 323 323 322 322 322 322 322 321 321 320 320 320 319 319 318 318 318 317 316 316 314 312 312 313 314 311 308 304 302 302 302 303 305 308 308 307 306 306 306 306 306 307 307 307 307 306 306 305 305 304 304 304 304 304 304 303 303 304 304 303 303 303 303 303 302 302 302
323 323 323 322 321 322 322 322 322 324 325 324 322 322 322 323 323 323 323 323 323 322 322 322 322 321 321 320 320 320 320 320 319 319 318 318 317 317 316 314 312 310 311 313 312 309 306 304 303 302 302 302 305 308 308 306 306 306 305 305 306 306 306 306 306 305 305 305 304 304 303 303 303 303 303 303 303 303 303 302 302 302 303 302 302 301 301
321 321 321 322 322 322 322 322 323 325 325 324 322 322 322 322 323 323 323 323 323 323 322 322 322 322 322 321 321 321 319 319 319 319 318 317 316 316 315 313 311 310 311 313 312 309 306 304 303 302 301 303 306 308 308 306 306 305 305 304 304 305 305 305 304 304 304 304 303 303 303 303 303 303 303 303 303 303 303 302 302 302 302 302 301 301 301
321 319 319 321 321 322 322 323 323 323 322 320 320 321 322 321 322 323 323 322 322 323 322 321 322 322 322 321 321 320 320 320 320 318 317 316 315 315 315 313 311 309 310 312 313 311 308 305 304 303 303 304 306 308 307 306 305 305 304 303 303 303 303 303 303 303 303 303 303 303 303 303 303 303 303 303 302 303 302 302 302 301 301 301 301 301 300
321 319 319 319 319 320 320 320 320 320 319 319 320 321 321 321 321 322 321 321 321 322 321 320 321 321 321 320 320 320 320 320 320 318 316 315 315 315 315 314 313 310 309 311 313 312 310 308 306 306 305 306 307 307 307 306 305 304 303 303 303 302 303 302 302 302 302 303 302 302 302 302 302 302 302 301 301 302 301 301 301 301 300 300 300 300 300
318 318 318 319 319 319 319 319 319 319 320 321 321 321 320 320 320 320 320 320 320 320 320 320 320 320 320 319 319 319 319 319 319 318 316 315 315 314 314 314 313 312 310 310 311 312 311 310 310 309 308 307 308 307 306 305 304 304 303 303 302 302 302 302 302 301 302 301 301 302 302 302 302 302 301 301 301 301 300 301 300 300 300 299 298 299 300
Wind_Speed
19 19 20 20 18 17 17 18 20 21 21 19 17 17 17 13 10 10 6 7 11 13 11 10 8 5 6 7 7 6 7 8 8 9 11 12 13 13 14 15 16 16 16 16 17 21 23 23 22 21 19 19 17 15 14 14 12 11 10 10 10 9 8 8 7 7 7 7 8 8 9 9 9 10 11 12 13 13 13 14 15 16 16 16 15 15 15
19 22 24 22 15 12 15 18 20 20 20 20 19 18 19 18 14 11 9 9 10 10 11 10 8 7 6 6 7 8 9 10 9 9 11 12 13 14 15 15 16 16 16 17 18 21 23 23 23 22 19 18 16 15 15 15 14 12 11 11 11 10 9 9 8 8 8 8 8 9 9 9 9 10 11 12 13 13 13 14 15 15 15 15 15 15 15
15 21 24 19 13 14 19 21 21 20 19 20 20 18 17 17 14 11 10 11 10 8 11 11 5 3 4 6 8 9 9 10 9 9 11 11 12 13 14 15 16 16 17 18 19 21 23 24 24 22 20 19 18 18 18 17 15 13 12 12 11 11 11 10 9 9 9 9 10 10 10 10 10 10 11 12 12 12 13 14 14 14 14 14 15 15 14
11 16 16 12 13 19 22 21 21 21 20 19 16 14 14 12 8 7 7 10 9 6 9 8 4 4 7 8 9 10 9 8 7 8 9 10 11 12 13 15 15 17 18 18 19 21 24 26 25 23 22 22 21 21 18 16 16 14 13 12 12 12 12 11 10 10 10 10 11 10 10 10 10 10 11 11 12 12 13 13 13 13 13 14 14 15 14
11 15 14 12 15 17 16 16 19 20 19 17 14 13 12 8 5 6 7 8 6 4 4 4 5 8 9 8 8 8 7 5 5 7 8 9 10 11 12 13 15 16 16 17 20 23 25 26 25 24 23 22 22 20 18 16 15 14 14 13 13 13 12 12 12 12 12 11 11 11 11 11 10 10 11 11 12 12 12 13 13 13 13 14 14 14 14
11 15 14 13 15 13 10 11 13 15 16 14 14 14 11 6 5 7 9 8 5 2 3 6 8 9 8 7 7 6 6 6 7 8 9 8 8 10 10 12 13 13 13 16 20 23 25 26 25 24 23 21 20 19 18 16 15 14 14 13 13 13 13 13 13 13 13 13 12 12 12 11 11 11 11 11 11 11 12 13 12 12 13 13 13 13 13
10 12 11 12 13 10 7 7 8 11 13 13 14 15 11 9 9 11 11 10 5 4 6 7 8 8 7 7 7 7 8 8 8 8 7 7 8 9 10 11 11 12 13 16 20 22 23 24 23 22 21 19 18 18 17 17 16 15 14 13 14 14 14 14 14 14 13 13 13 12 12 12 12 12 12 11 11 11 12 12 12 13 13 13 13 13 12
9 9 10 11 7 2 2 4 5 7 9 10 13 13 11 10 10 9 10 9 6 6 8 8 6 6 6 7 8 8 8 8 8 8 7 8 9 8 9 10 11 12 14 17 19 21 21 21 21 20 19 18 17 17 17 17 17 16 15 15 15 15 15 15 15 15 14 13 13 12 12 12 12 12 12 11 11 11 11 12 12 12 13 13 13 12 12
8 9 10 8 2 2 5 5 4 6 7 8 8 8 9 8 8 8 8 8 7 8 9 7 4 3 5 8 8 8 9 8 8 7 6 8 9 9 10 11 12 14 16 17 19 20 20 20 19 18 18 17 17 16 17 17 17 16 16 16 16 16 16 16 16 16 15 13 13 13 12 13 13 12 12 11 11 11 11 12 12 12 13 13 12 12 13
7 9 11 8 7 9 8 6 5 7 7 5 4 4 6 6 7 10 9 7 6 7 8 6 2 3 6 9 8 7 10 9 8 6 6 8 9 10 11 12 14 15 15 16 18 18 18 18 18 17 16 16 16 16 17 17 17 17 16 17 17 17 17 17 17 16 15 13 13 13 13 13 13 13 12 12 11 11 11 11 12 12 12 12 12 12 13
9 10 10 8 9 8 4 7 13 12 8 5 5 4 6 7 8 10 8 6 5 5 6 4 2 4 7 8 4 5 10 10 10 8 7 9 11 12 13 13 14 16 16 16 16 16 16 17 16 16 15 15 15 15 17 18 17 17 18 18 18 18 17 17 16 15 14 14 13 13 13 14 14 13 13 12 12 12 12 11 12 12 11 11 12 12 12
9 10 9 8 8 3 1 5 9 10 8 6 6 7 5 3 4 3 2 3 4 4 5 4 3 6 7 6 2 5 10 11 11 10 8 10 12 12 14 15 15 16 16 16 15 16 16 15 15 14 14 14 14 15 16 17 18 18 19 19 18 17 17 16 16 15 14 14 14 14 14 14 14 14 13 13 13 12 12 12 12 11 10 11 13 13 12
10 10 10 9 6 2 4 5 4 7 8 7 7 6 2 3 2 1 1 4 6 4 4 4 4 6 6 4 3 5 9 11 11 10 10 12 14 14 15 16 16 15 15 15 15 15 14 13 12 12 12 13 13 14 15 16 18 19 19 19 17 16 17 17 17 16 15 15 15 15 14 14 14 14 14 14 13 13 13 12 11 10 10 11 13 14 13
10 9 10 10 5 1 2 7 7 7 7 6 3 2 3 1 1 1 2 5 6 6 6 5 5 7 7 5 6 8 9 10 11 11 12 13 14 14 16 16 15 15 14 13 13 13 11 11 10 10 11 12 12 13 14 16 18 18 18 18 17 17 19 18 18 17 17 16 16 15 14 14 14 14 14 14 13 13 13 12 10 10 11 12 13 14 13
9 9 11 11 5 1 4 6 6 4 4 1 2 2 1 1 1 1 2 4 4 6 8 7 7 9 9 7 8 8 9 10 11 12 12 13 14 15 16 15 13 13 13 11 12 12 11 10 10 9 11 12 11 12 13 15 16 16 17 18 18 19 20 19 19 18 17 16 16 15 14 14 15 15 15 14 14 14 14 13 12 11 11 12 12 13 13
7 8 6 4 1 4 4 2 2 2 1 3 3 1 1 1 2 3 4 5 5 6 7 8 10 10 8 9 10 8 8 9 11 12 12 13 14 15 15 15 13 12 11 10 10 9 8 8 8 9 9 9 10 12 13 14 15 15 17 18 19 20 20 19 19 17 16 16 16 15 14 14 14 14 14 15 15 13 13 13 12 12 12 11 11 11 13
2 1 3 3 3 4 4 3 3 3 3 3 2 2 3 3 3 4 5 6 7 7 7 7 9 9 9 10 7 4 6 8 10 12 12 13 14 14 14 13 12 11 9 8 7 6 5 4 5 6 7 8 10 12 13 13 13 14 16 16 18 18 17 17 16 16 16 16 15 15 15 14 15 14 14 15 14 12 13 15 14 12 11 10 10 11 12
2 3 5 4 3 3 3 4 4 4 4 4 4 4 4 4 5 5 6 7 8 9 8 7 8 9 10 10 7 6 9 10 10 10 11 12 12 13 12 11 10 9 7 7 7 6 5 5 5 6 6 7 10 11 11 11 12 13 13 14 16 16 15 15 16 16 16 15 14 15 15 15 16 15 14 14 12 10 14 18 14 11 10 10 10 10 12
4 2 2 3 3 3 3 4 6 7 7 7 7 5 4 5 6 6 7 8 8 9 9 9 9 10 10 10 11 11 11 10 10 10 10 10 10 11 11 11 9 7 6 6 5 4 3 4 4 5 5 6 8 9 9 11 12 12 12 13 15 16 15 15 15 14 14 15 15 14 14 16 18 16 12 11 9 7 14 19 15 10 11 11 10 9 11
4 3 2 2 3 5 7 6 6 7 8 8 7 6 5 5 6 6 6 7 8 9 9 9 10 11 11 10 9 7 6 6 8 10 10 11 11 12 12 10 8 7 6 5 4 3 3 2 1 3 5 7 9 10 11 12 12 11 11 12 13 14 13 12 12 13 14 15 14 13 13 15 15 11 8 8 7 9 15 18 13 10 10 9 9 9 10
3 4 4 4 4 5 6 8 8 7 8 8 8 7 7 7 6 6 5 4 5 7 7 7 8 10 11 10 9 8 6 7 8 9 11 11 13 13 11 10 9 8 7 6 5 5 4 2 1 2 4 6 9 11 11 11 11 10 10 10 11 11 11 12 13 15 15 14 12 12 14 13 10 9 9 8 7 9 13 14 11 9 8 7 7 8 8
2 3 1 1 2 4 4 8 9 8 8 8 8 8 8 8 9 9 7 4 3 5 7 6 7 10 9 8 10 11 12 10 8 9 11 12 13 12 11 11 10 9 8 6 5 4 4 2 1 1 3 5 7 9 10 9 7 7 8 9 10 12 14 15 16 16 14 13 13 16 17 13 10 10 10 9 9 10 12 12 11 11 10 8 8 7 6
2 5 5 5 3 1 4 7 7 7 7 8 8 8 9 9 9 9 9 6 2 3 5 6 7 6 1 2 6 9 7 10 9 10 11 12 11 11 10 10 9 8 7 6 5 5 4 2 1 1 3 3 4 6 6 5 5 6 8 9 11 13 14 13 12 12 11 12 14 16 14 10 12 11 9 9 9 8 8 9 9 8 7 7 7 6 3
5 6 6 5 5 5 5 7 7 5 5 7 8 8 9 9 9 10 10 10 6 0 1 3 5 2 1 2 7 6 4 9 10 10 11 11 10 9 8 9 8 7 6 6 5 5 4 2 1 1 2 2 3 4 5 4 4 7 8 9 11 13 14 12 11 11 12 13 13 14 12 7 11 11 8 6 6 6 6 7 6 6 5 4 2 2 3
5 6 6 5 6 7 7 7 6 3 4 6 8 9 10 10 10 10 9 8 8 5 4 6 6 6 6 8 10 7 6 8 9 10 11 10 9 8 8 9 10 9 7 6 5 4 4 3 2 1 1 1 1 3 4 3 4 6 8 9 11 12 12 12 11 9 10 11 11 12 14 10 7 10 11 9 7 8 7 6 5 5 4 3 2 1 1
7 6 6 6 6 7 6 6 6 3 5 8 9 9 10 10 10 10 9 8 8 7 6 6 5 6 7 9 9 7 6 8 10 10 10 9 9 9 9 10 10 8 7 7 5 5 4 3 3 2 2 2 1 1 3 3 4 6 7 9 10 11 11 11 11 10 10 11 11 12 13 11 6 8 12 12 9 8 8 6 5 5 4 3 3 4 4
7 7 7 7 7 6 5 5 6 7 9 10 10 10 11 11 10 10 10 9 8 7 8 9 5 3 4 6 6 6 7 9 9 9 9 9 10 9 9 9 9 8 8 7 6 5 5 4 3 3 2 0 1 1 3 3 4 5 7 8 9 10 10 9 9 11 12 12 12 12 10 8 6 5 5 5 5 7 7 6 7 6 5 5 4 4 4
7 6 6 6 6 6 6 6 8 9 9 9 10 10 11 12 11 11 12 11 9 8 8 9 7 3 3 6 7 7 8 9 9 8 9 9 9 8 8 9 9 8 8 8 7 6 5 4 2 1 1 1 1 2 3 3 4 5 6 7 8 9 10 8 8 10 11 10 10 10 8 7 6 3 1 2 5 7 7 7 7 7 8 8 5 4 4
5 4 4 4 5 6 7 7 8 9 9 10 10 10 11 12 12 12 11 11 11 9 8 10 9 7 6 8 8 7 6 7 7 7 7 6 7 9 9 8 8 8 7 7 7 6 5 4 2 1 1 0 3 4 3 4 5 6 6 6 7 8 7 6 6 8 9 9 8 7 6 6 6 3 2 2 3 4 4 5 6 7 9 9 7 8 7
5 5 6 6 7 8 9 8 8 9 9 10 10 10 11 11 12 11 11 11 11 10 10 10 9 8 8 8 7 7 8 8 7 7 7 6 7 8 8 8 8 7 7 7 7 6 6 5 2 1 2 3 4 5 5 6 7 7 7 6 6 6 7 8 8 7 7 9 9 7 5 5 3 0 3 4 4 4 4 3 2 4 7 6 3 3 3
7 8 9 9 9 10 10 8 8 8 8 9 10 11 11 11 11 11 11 10 10 10 11 11 10 9 10 10 10 11 12 10 8 9 9 8 7 7 7 6 6 6 6 6 6 5 5 3 1 1 2 4 6 7 8 8 8 8 9 7 5 5 6 8 8 6 7 9 10 8 5 3 2 5 6 7 8 8 8 7 7 8 9 8 7 8 7
9 10 11 10 9 9 9 8 8 9 10 10 11 11 11 11 12 12 11 10 10 10 10 10 10 10 12 13 12 12 11 10 11 12 10 9 9 7 6 5 4 5 6 5 4 3 3 3 1 0 1 4 6 8 9 9 8 9 9 7 4 3 4 4 4 4 5 8 8 4 0 3 6 8 8 7 7 7 7 7 9 10 9 6 5 7 6
9 9 9 8 8 9 10 10 10 11 12 12 12 11 11 11 12 12 11 10 11 10 9 10 11 11 12 12 11 11 12 12 12 11 11 10 10 8 7 6 6 7 6 5 4 3 3 2 2 1 2 4 7 8 9 9 9 9 8 5 2 1 1 1 1 2 3 3 4 6 6 7 8 9 9 9 8 8 8 7 8 9 9 5 4 5 5
9 9 10 10 10 11 12 12 11 11 12 12 12 12 12 12 11 12 11 11 11 11 10 11 13 14 13 12 11 11 10 9 8 9 11 11 11 10 9 8 8 8 7 4 3 1 1 1 2 2 2 4 6 7 8 9 8 7 5 2 2 0 1 1 1 1 1 2 4 6 7 7 8 9 9 8 8 8 8 7 7 8 9 8 4 3 2
11 12 13 13 13 13 14 13 13 13 13 13 13 13 13 13 12 12 13 13 12 12 12 14 16 16 13 11 12 13 13 11 9 10 12 12 11 11 11 9 9 8 6 3 2 1 1 1 1 1 2 3 4 5 5 5 3 1 1 2 4 4 3 4 4 3 3 4 6 8 8 8 7 7 7 6 5 4 3 2 1 2 3 4 4 2 1
14 13 13 12 13 15 15 14 14 14 13 13 13 13 14 15 15 16 16 16 14 13 13 14 14 13 11 11 12 13 12 11 11 12 12 12 12 11 10 8 7 7 6 5 4 2 1 1 2 2 1 0 1 2 3 3 1 4 4 4 5 6 6 5 4 4 5 6 6 7 7 6 5 5 4 3 2 1 1 2 2 2 3 3 4 4 3
15 14 12 11 13 14 14 13 14 15 14 14 15 15 15 17 18 18 19 18 16 13 13 13 12 10 10 11 10 8 8 9 10 11 11 12 11 9 8 7 5 5 6 6 5 3 2 2 3 4 3 2 2 2 2 2 3 5 5 5 6 6 6 5 5 5 5 5 4 4 4 4 4 3 4 4 4 4 4 4 4 4 3 4 5 5 4
16 16 15 14 14 15 15 16 17 17 16 16 17 17 18 19 19 18 18 17 15 12 11 11 10 8 7 7 7 9 9 10 11 12 12 11 10 8 8 7 4 3 4 5 6 4 3 3 4 4 4 5 5 5 4 4 5 5 5 5 6 5 5 5 5 4 4 4 4 3 3 3 3 4 5 5 5 5 5 4 4 5 5 5 5 5 4
15 15 15 16 15 15 15 16 17 17 17 16 15 16 18 19 18 16 16 14 10 7 6 6 6 7 8 8 9 9 10 10 10 10 10 10 9 8 8 7 4 2 3 6 7 6 5 6 6 6 7 6 6 6 5 5 5 5 5 5 4 4 3 3 3 3 3 1 2 2 3 3 4 5 5 5 5 5 5 4 5 5 6 6 6 6 6
13 13 14 14 14 14 14 14 15 17 18 16 14 14 16 15 14 13 12 9 7 7 8 9 9 10 9 9 8 8 8 8 8 9 9 9 9 9 8 7 6 4 4 6 7 7 7 7 7 7 7 6 5 5 5 5 6 5 5 5 4 4 3 3 3 4 4 4 4 4 5 5 5 5 6 6 5 5 5 5 6 7 7 6 6 5 5
13 14 14 13 12 12 13 13 13 15 16 14 12 12 12 10 8 7 5 5 6 6 7 8 9 9 9 10 9 8 7 7 8 9 9 9 9 8 7 7 7 7 7 7 8 8 7 5 5 6 6 4 4 3 3 3 5 6 5 5 6 6 6 6 6 6 7 7 6 7 7 7 6 6 7 6 6 6 6 6 7 6 6 6 6 5 5
12 12 12 11 12 13 12 11 12 12 11 10 9 9 8 6 4 4 5 7 7 6 6 5 6 7 8 9 9 8 7 8 8 9 9 10 9 7 7 9 9 9 7 7 8 8 6 4 4 6 5 3 3 3 3 3 6 7 6 5 5 6 7 7 8 8 8 8 9 8 8 8 8 8 7 7 7 6 6 6 6 6 6 6 6 6 6
11 9 8 9 11 13 12 10 10 9 5 3 4 5 3 1 3 5 7 7 8 8 8 7 6 5 4 5 6 7 7 8 9 9 9 8 6 5 8 11 10 8 8 9 9 8 6 4 5 7 5 4 3 3 4 5 5 5 5 5 5 5 6 6 7 6 6 7 8 7 7 8 8 8 7 7 7 7 6 6 6 6 6 5 5 5 5
10 8 7 6 6 7 7 7 7 7 3 3 5 5 6 7 6 6 6 7 8 8 7 7 6 3 0 1 4 6 7 8 9 9 8 7 5 5 9 11 10 9 9 10 9 8 7 7 8 6 4 3 2 2 4 5 4 3 4 4 4 4 5 6 6 5 6 6 6 6 6 6 7 8 7 7 7 6 6 6 6 6 5 5 5 5 5
9 8 6 4 2 2 3 6 7 7 6 3 4 5 5 5 5 5 5 5 6 5 5 5 6 4 2 2 4 6 7 8 9 9 8 7 6 7 9 10 9 10 9 8 7 7 10 10 7 5 3 3 3 3 3 3 3 3 4 5 5 6 6 7 7 7 7 7 7 6 5 5 7 7 7 6 6 6 6 6 5 5 5 5 5 5 5
8 7 6 3 1 2 3 5 6 5 4 2 1 3 4 4 4 4 3 4 4 5 5 5 6 6 6 7 7 8 8 9 9 8 7 6 7 10 11 9 9 11 11 9 6 9 12 9 6 6 5 4 2 3 3 2 3 4 4 5 5 6 6 7 7 7 6 7 8 7 6 6 7 7 7 6 6 5 5 5 4 5 5 5 4 4 4
6 5 4 5 5 5 4 4 4 4 3 2 1 1 2 2 3 3 2 3 4 4 5 6 7 8 9 10 9 9 9 9 8 7 7 7 9 12 11 9 11 13 9 4 5 12 14 11 8 7 5 3 2 3 3 2 3 4 4 4 5 6 6 6 6 6 6 7 7 6 5 5 6 7 7 7 6 5 5 5 6 6 6 5 5 4 5
7 7 7 6 6 6 5 5 4 3 2 2 1 1 2 2 3 4 4 4 5 5 6 6 7 7 8 9 9 8 8 7 7 7 8 9 10 12 12 11 13 14 8 4 9 14 13 10 9 8 5 4 4 5 4 4 5 5 5 5 5 6 6 7 7 7 7 6 6 6 6 6 7 7 7 7 7 7 6 7 7 7 6 6 6 6 6
7 8 8 7 6 5 5 4 3 3 2 2 3 5 5 4 4 4 4 4 4 5 5 5 5 5 6 7 7 7 7 7 7 8 10 11 11 12 12 13 16 15 11 6 9 12 10 8 9 9 6 6 8 8 6 5 7 8 7 6 6 6 5 5 4 5 7 7 7 7 7 8 9 8 7 7 7 7 6 7 7 6 6 6 6 6 7
6 6 6 5 4 4 4 3 3 4 3 3 6 8 7 5 4 4 4 4 4 4 4 4 4 5 5 6 6 6 6 6 6 8 10 12 12 12 12 14 16 15 11 7 8 12 12 10 11 11 9 8 9 9 7 6 7 8 7 7 7 7 6 4 3 3 5 6 7 8 9 9 8 7 7 6 6 6 7 7 7 6 7 7 6 6 7
2 1 4 5 4 4 3 3 3 5 6 7 8 8 6 3 2 2 1 1 3 4 4 4 4 5 5 5 6 6 6 6 6 7 9 10 11 11 11 11 13 13 11 8 8 14 15 12 11 11 10 10 10 10 9 8 8 9 9 9 9 9 8 7 7 7 8 7 7 7 8 8 7 7 7 7 7 7 7 7 7 7 8 10 9 7 7
1 1 2 4 4 5 5 5 5 6 7 6 4 3 3 3 3 2 2 2 3 5 5 4 3 4 5 6 7 7 8 7 7 8 9 9 9 10 10 10 11 12 11 10 9 11 12 11 10 10 10 10 10 9 8 8 8 8 9 9 10 10 9 8 8 9 9 9 8 8 8 8 8 7 8 8 8 8 8 8 8 7 8 9 10 9 8
Wind_Direction
238 246 242 233 226 225 223 219 221 226 228 230 232 237 238 232 236 248 230 214 244 260 264 279 299 289 259 267 270 265 260 248 230 212 201 196 193 191 192 193 192 189 183 175 175 175 172 169 166 165 170 177 178 181 190 197 200 198 190 187 193 201 205 212 219 224 232 240 242 249 255 257 265 274 279 284 286 287 288 291 295 296 296 297 297 295 293
227 234 240 241 243 242 236 232 229 227 225 224 227 234 237 235 237 238 226 226 241 257 270 282 301 305 289 281 281 274 262 256 245 221 207 203 200 195 193 193 193 190 184 178 178 178 175 171 168 168 172 171 171 184 195 198 199 196 189 187 192 200 205 209 215 219 224 231 237 244 250 255 263 271 278 285 286 286 290 293 296 298 297 295 293 291 291
230 230 232 231 233 239 243 242 239 237 237 232 230 231 233 236 238 229 229 245 247 248 267 272 275 287 275 263 265 266 262 258 251 235 220 212 207 200 195 193 191 189 185 182 183 182 177 172 168 168 167 164 175 195 199 195 195 194 190 190 193 201 206 206 210 215 219 225 233 240 246 252 259 268 278 283 283 285 291 294 295 296 295 294 293 292 292
243 243 239 232 234 240 242 243 241 238 239 240 237 235 236 238 239 228 232 250 254 256 267 263 227 223 256 262 263 265 262 257 254 248 237 224 215 206 197 193 191 192 190 187 188 184 177 171 169 168 166 170 185 198 197 193 195 193 190 192 196 201 205 205 207 211 217 223 230 237 243 249 255 266 276 279 281 285 289 293 295 295 295 294 293 292 292
240 242 237 235 241 243 239 238 239 240 241 243 241 237 240 247 244 239 243 250 260 281 285 270 258 261 272 279 283 282 273 260 258 257 251 238 222 209 200 194 193 195 194 192 191 184 176 172 170 169 170 179 189 193 192 194 194 191 190 193 199 203 204 205 206 209 216 223 229 236 240 245 253 262 270 274 277 282 288 293 294 293 294 293 293 293 293
243 240 231 233 239 239 239 242 244 245 245 247 250 246 237 223 224 246 263 271 280 299 278 271 273 276 283 290 293 294 283 268 260 251 242 234 221 206 198 195 193 193 194 192 190 184 177 173 171 171 176 183 187 187 189 193 192 191 192 194 199 204 204 206 208 210 215 222 229 235 237 243 251 256 263 269 273 280 288 290 290 292 295 295 295 295 294
244 242 230 233 236 234 246 257 248 246 244 240 247 253 242 226 229 239 252 262 263 258 265 269 271 274 280 284 282 277 268 257 250 241 224 211 209 199 190 189 187 187 189 187 184 182 178 174 172 174 179 184 186 186 189 192 192 192 193 197 203 205 205 208 211 212 216 221 228 235 239 243 249 253 256 262 267 275 283 287 290 294 294 293 293 293 295
239 239 227 229 239 246 249 251 239 245 252 241 239 246 244 239 241 235 236 246 250 258 268 264 259 266 276 277 268 255 247 238 232 230 211 195 195 189 182 182 178 179 183 182 179 178 175 173 175 178 182 187 189 190 191 194 194 192 194 201 208 208 208 210 213 214 217 222 227 235 241 244 248 250 252 258 264 269 275 282 286 290 292 292 291 293 295
229 238 235 225 231 234 213 215 222 230 241 237 234 241 234 224 231 237 240 246 248 263 274 271 272 291 284 275 259 226 210 211 219 222 201 181 179 174 171 171 171 175 178 176 174 173 172 174 179 183 186 191 194 196 196 196 197 196 199 204 209 211 212 213 215 216 217 220 228 235 240 243 246 248 249 254 258 261 269 278 283 289 293 291 290 292 294
218 240 247 232 233 237 213 195 211 227 231 208 188 230 215 191 222 247 248 244 244 258 268 267 285 298 273 272 261 204 181 183 189 196 181 161 159 160 160 162 163 168 171 170 169 170 172 176 183 187 190 193 196 201 203 202 202 201 204 209 212 213 214 215 217 219 218 220 228 235 239 242 245 247 248 251 255 259 267 275 281 286 289 288 289 293 297
220 232 243 240 245 251 222 210 216 214 210 170 150 219 228 196 217 239 240 240 250 261 264 255 239 255 266 277 269 165 164 168 167 173 166 147 146 151 153 155 157 159 164 166 166 170 175 180 185 190 195 199 203 207 211 212 210 208 209 214 216 214 214 217 219 221 221 222 229 237 240 242 245 247 247 248 253 257 260 267 274 278 283 289 293 298 305
233 235 239 244 252 258 105 236 222 192 183 181 190 233 247 188 192 223 247 260 261 256 256 255 240 245 265 296 328 151 165 165 157 160 156 141 142 149 150 151 153 155 160 164 168 174 179 182 188 192 198 208 213 214 216 218 219 218 216 218 220 217 216 218 220 222 225 226 229 236 242 243 244 245 245 247 251 254 258 267 275 281 286 291 293 297 301
237 240 243 245 245 174 162 211 196 157 175 202 221 244 291 91 141 156 234 269 280 279 253 242 246 253 260 284 284 206 180 162 152 155 150 142 147 151 149 148 149 152 159 165 172 178 179 181 189 194 200 211 219 220 221 225 227 225 222 221 219 217 217 219 220 220 223 226 229 234 238 242 243 242 241 245 250 254 258 265 271 278 283 285 288 293 296
236 241 250 248 250 3 222 203 171 166 202 216 227 313 14 58 200 172 213 258 288 300 281 263 262 269 269 261 251 226 186 162 158 157 148 147 152 148 141 143 149 154 158 165 173 177 177 180 189 198 204 211 219 223 226 231 232 230 227 223 219 217 218 219 219 221 222 223 227 231 232 235 239 241 241 244 249 255 259 261 265 269 272 276 281 289 294
237 240 252 252 239 241 246 210 165 174 232 227 77 51 37 214 246 295 267 272 297 299 292 288 275 271 273 266 249 224 186 169 169 161 153 155 154 144 140 146 153 156 156 165 178 183 187 193 196 203 211 215 221 227 232 235 238 235 230 224 219 217 218 217 218 222 222 221 223 226 228 231 235 237 239 240 245 252 254 253 255 258 260 266 275 285 291
250 241 247 271 154 149 182 187 125 134 111 65 60 0 289 258 279 290 287 296 302 291 291 292 280 272 271 263 247 216 187 183 173 159 157 157 151 150 154 156 157 158 158 166 182 189 194 198 194 198 210 220 226 234 240 243 243 240 234 227 222 219 217 218 220 223 224 222 222 224 226 229 233 236 238 239 241 248 250 246 246 249 252 257 268 282 290
332 149 128 87 82 116 130 122 110 112 98 79 42 324 304 301 313 312 303 296 289 280 276 273 269 264 257 255 248 202 192 203 179 157 156 157 155 159 160 153 156 164 163 162 169 173 170 168 173 190 213 231 238 242 248 250 249 245 238 231 225 222 221 222 225 227 226 222 222 226 228 231 235 236 238 239 235 239 250 249 245 245 250 258 269 280 288
101 101 108 110 101 100 117 120 95 56 44 42 31 10 347 337 336 324 310 302 295 285 274 263 261 256 246 237 226 211 211 201 171 150 150 152 155 158 145 132 142 158 162 165 169 170 170 175 189 205 219 238 249 255 259 259 254 249 242 234 230 228 227 227 229 230 229 225 227 230 232 239 243 241 241 241 231 227 246 251 245 241 248 258 266 275 287
195 189 116 104 101 81 72 73 60 41 30 28 26 19 1 343 330 316 309 302 292 283 271 260 254 251 240 223 210 208 201 177 154 147 144 140 143 144 132 123 133 145 151 164 170 169 173 183 212 232 239 247 255 260 264 265 261 250 238 235 234 233 232 232 229 228 228 230 233 231 229 240 248 245 242 240 225 224 250 254 249 243 250 261 270 279 291
177 152 157 142 102 85 72 63 50 32 19 16 19 15 356 337 321 314 311 294 282 278 269 258 252 244 232 217 197 175 160 165 161 149 138 132 130 129 126 126 132 133 128 127 120 111 113 122 209 270 278 277 274 271 268 271 273 260 241 236 238 239 238 233 230 231 232 234 236 235 238 249 251 244 242 243 231 237 248 248 241 239 251 266 277 282 290
147 138 181 201 174 138 98 65 45 28 13 9 14 10 356 350 344 331 318 301 295 293 281 268 260 245 223 198 172 154 166 196 181 145 133 133 129 124 121 120 118 111 104 100 96 97 106 110 117 282 285 287 289 289 280 273 272 265 247 237 238 242 240 233 231 233 231 229 233 237 243 248 237 220 227 229 208 210 221 218 211 221 244 262 269 278 296
203 128 105 12 213 179 95 46 27 20 17 11 12 14 8 5 359 338 318 316 352 345 337 323 273 245 218 182 182 191 187 181 165 140 133 131 125 122 121 117 111 106 103 104 108 113 117 115 119 281 286 289 297 301 296 285 273 261 250 245 247 250 248 242 240 236 225 221 232 241 240 229 203 201 214 207 189 192 200 203 209 221 233 246 256 271 300
92 73 47 30 18 35 47 25 6 11 20 10 7 15 11 2 357 345 326 315 340 49 15 335 288 260 221 161 232 228 181 146 144 144 137 129 125 127 124 115 109 110 114 122 127 124 120 125 153 256 291 294 297 303 307 305 291 268 255 254 260 262 260 262 270 268 250 235 237 247 245 212 184 191 199 187 186 196 196 199 211 221 228 240 250 257 253
69 61 34 19 6 347 355 358 349 2 25 10 1 6 2 353 351 349 337 323 314 274 160 267 266 251 80 263 259 251 166 147 153 147 137 132 132 133 130 123 126 136 141 138 133 129 131 150 169 226 297 303 312 314 313 306 292 281 269 263 265 269 271 275 281 276 263 254 255 264 267 229 187 193 197 167 160 177 186 190 199 204 210 218 228 239 212
20 34 18 3 341 323 324 328 316 324 32 14 354 349 347 344 341 339 335 324 311 292 239 223 213 188 191 222 230 213 172 157 149 137 132 132 132 138 146 147 150 155 148 135 134 145 154 158 153 153 255 258 273 306 306 293 280 279 275 270 273 277 280 281 276 264 258 262 269 273 274 262 207 193 204 204 184 170 170 178 183 180 182 178 134 65 0
348 355 342 322 306 302 307 303 292 318 5 353 338 334 330 325 325 324 315 304 301 299 286 263 232 190 197 223 224 200 166 153 147 145 146 145 149 164 169 161 154 149 141 139 147 151 149 152 152 166 228 257 221 257 281 279 268 269 272 271 273 279 284 287 287 282 272 267 266 265 267 267 243 210 218 224 203 166 156 166 169 160 158 156 112 62 32
325 325 320 309 296 295 310 316 318 333 338 326 318 318 313 308 308 304 292 281 276 281 286 283 268 192 204 231 219 179 161 160 161 163 166 167 172 178 170 154 147 143 142 146 147 139 140 153 163 177 207 348 44 268 270 270 262 263 268 271 274 278 279 279 280 280 277 273 273 276 279 278 270 259 260 252 205 172 176 191 184 168 166 167 133 79 50
302 298 295 293 295 305 317 319 315 313 310 305 304 306 304 301 297 289 284 281 272 261 266 274 272 243 222 231 217 193 182 179 179 181 183 182 178 164 145 139 145 150 150 150 146 144 151 158 162 173 151 92 311 268 265 268 265 263 265 269 274 275 272 270 274 279 283 285 284 288 297 296 288 297 357 195 194 184 182 191 188 171 164 166 156 129 104
287 297 302 306 315 313 305 298 296 296 297 299 300 300 298 297 292 286 285 288 284 272 261 260 258 245 231 232 231 222 210 200 194 188 178 167 154 141 138 144 152 152 152 151 146 143 138 127 121 138 142 223 278 271 266 268 269 270 272 274 276 276 280 298 312 305 300 300 296 292 291 285 285 316 61 126 187 196 192 206 212 187 164 160 167 168 153
324 332 323 314 309 301 296 295 296 296 296 297 297 296 295 294 291 288 286 287 288 287 279 270 264 254 244 243 240 239 242 235 211 181 161 151 143 139 145 157 162 163 165 158 147 140 135 130 137 227 273 285 284 284 287 285 281 279 278 276 278 284 299 315 319 312 301 295 289 282 269 258 256 281 93 105 104 100 106 121 152 143 126 106 86 115 108
327 320 310 306 304 300 297 298 296 295 296 297 298 297 295 291 289 288 287 284 282 281 276 272 266 255 248 245 236 231 237 232 198 166 156 151 142 137 148 170 182 182 172 158 147 142 138 135 143 289 306 298 292 292 292 288 285 280 275 272 275 290 305 308 301 296 295 287 277 263 247 226 130 108 111 107 98 97 101 103 103 96 83 63 46 39 27
319 311 306 305 304 300 299 301 302 302 302 302 299 298 297 295 291 288 286 283 282 280 275 270 261 247 244 245 235 216 201 182 163 156 151 146 141 141 152 166 161 140 134 132 129 126 121 120 133 157 276 280 283 287 288 285 283 279 277 277 282 300 327 328 297 280 287 288 286 286 190 114 103 105 111 108 107 118 122 107 96 90 82 70 59 45 27
312 307 305 308 309 305 305 305 303 300 299 298 295 292 289 287 284 284 284 283 282 279 276 273 266 253 242 237 224 196 174 162 159 159 154 147 146 146 147 143 132 122 120 120 120 122 120 126 154 196 260 277 281 286 288 287 284 281 282 295 332 319 318 0 291 275 298 326 353 26 59 88 101 110 117 114 114 127 132 126 129 130 124 112 76 41 25
307 303 302 303 300 297 298 298 296 295 294 292 290 289 287 284 282 282 282 280 278 277 279 282 280 269 249 228 211 201 194 185 174 162 152 148 149 146 141 136 128 121 118 121 133 148 139 136 173 222 259 277 285 292 295 293 289 283 284 324 41 334 252 70 58 345 352 55 71 74 84 99 105 110 119 128 140 154 159 166 178 167 140 118 97 48 21
299 295 294 293 291 291 293 293 292 293 292 290 289 289 287 287 287 287 285 280 274 272 274 276 276 272 256 229 216 219 219 208 183 159 149 147 146 142 139 137 133 124 118 120 133 140 125 128 194 267 287 282 285 302 313 308 303 321 93 89 85 89 96 95 92 90 91 99 102 99 95 97 105 113 123 132 140 148 137 108 123 172 147 129 133 144 141
294 292 291 291 289 288 288 286 285 286 286 286 287 287 286 285 285 284 283 280 273 267 267 267 265 261 249 234 230 230 220 196 167 151 147 144 142 143 146 147 143 141 143 142 137 136 136 124 120 109 87 311 284 333 349 342 39 91 95 99 98 98 104 112 115 109 103 101 101 99 94 92 100 115 128 128 115 105 121 128 153 202 216 193 177 180 199
291 288 287 286 285 284 284 284 284 284 283 281 281 280 280 281 280 278 277 277 274 270 270 268 263 255 244 233 223 208 188 169 155 149 147 142 140 147 152 148 150 173 181 161 143 143 148 124 122 129 129 113 103 80 37 40 90 101 101 110 120 125 131 139 144 144 137 125 115 114 120 123 125 140 164 169 172 190 202 203 205 212 211 201 195 196 203
286 284 283 283 283 284 283 282 280 279 279 280 279 276 274 274 274 271 270 269 267 263 262 261 254 240 220 195 169 155 156 159 155 150 145 141 145 151 147 141 157 214 200 160 146 151 163 155 143 137 123 106 101 101 94 95 106 113 117 123 133 144 158 164 162 157 155 153 151 158 169 163 162 185 201 198 196 205 211 211 212 210 204 201 198 192 190
284 283 281 280 280 281 282 282 279 277 275 275 276 276 274 270 267 264 262 258 250 236 225 215 196 173 162 158 157 158 159 159 154 146 138 138 144 146 137 126 106 75 124 151 156 160 167 163 143 125 121 122 117 109 106 111 120 123 126 134 138 134 131 132 112 89 83 119 180 212 229 215 200 214 224 217 205 208 211 210 210 207 200 195 191 188 186
284 282 281 283 287 288 287 284 279 276 275 276 279 284 284 276 264 256 249 232 209 195 187 176 165 159 157 156 153 146 140 141 146 146 141 141 147 149 139 123 110 115 168 178 163 155 165 168 145 126 130 140 133 122 130 153 166 156 139 138 146 143 137 146 158 164 175 186 195 212 230 230 223 229 238 237 226 215 206 201 204 202 193 184 185 187 184
284 281 279 278 282 285 287 286 283 280 279 280 282 287 289 283 265 246 219 176 161 169 175 171 164 159 154 149 142 137 138 146 154 158 161 164 166 164 153 138 136 149 164 156 139 143 167 178 154 142 152 159 152 145 155 190 219 223 205 187 192 197 196 202 216 220 217 217 221 227 233 238 240 240 242 244 239 223 204 193 195 196 186 178 178 179 175
283 289 292 290 288 291 294 294 291 285 282 284 288 287 280 263 229 181 148 139 138 134 129 133 141 146 149 150 148 150 160 165 166 172 180 184 185 179 164 151 145 144 143 140 139 148 164 164 140 135 132 121 135 174 218 266 272 262 249 241 245 243 234 234 243 247 246 246 250 252 252 253 252 247 243 241 235 221 203 191 190 189 184 180 179 177 174
281 291 308 313 311 314 318 313 300 291 288 319 346 345 349 38 120 126 127 128 126 116 107 105 114 132 160 170 163 163 172 176 175 177 181 182 181 165 148 145 147 153 163 169 170 170 167 142 121 122 121 111 122 182 233 261 273 273 274 285 295 292 276 267 268 269 261 254 254 256 258 256 252 245 238 233 225 210 197 193 190 186 183 182 179 174 169
287 292 305 312 317 329 342 343 330 323 338 58 70 65 67 74 83 95 104 106 103 101 100 104 108 107 318 228 165 165 177 180 175 171 167 161 149 135 137 144 154 167 179 190 195 183 154 119 106 120 161 190 188 208 249 269 277 278 278 280 275 261 254 254 256 255 250 246 245 244 243 243 241 236 228 223 214 199 192 196 192 183 181 183 179 174 172
299 287 283 290 301 329 356 5 1 350 348 24 68 76 79 87 94 96 97 100 104 105 106 113 120 127 159 196 181 184 191 189 183 179 178 174 160 149 150 155 159 166 183 208 210 163 129 115 112 127 150 160 169 197 248 285 293 283 275 271 262 252 247 246 244 242 240 241 242 237 226 221 226 226 220 215 209 197 193 196 189 178 181 189 185 178 179
301 271 256 270 354 11 354 355 354 341 319 305 88 82 77 81 87 84 82 95 114 124 131 140 152 171 189 194 192 194 197 195 191 189 190 184 166 160 164 169 165 167 184 208 193 140 122 120 138 147 130 125 182 238 272 302 299 288 280 270 260 253 247 242 240 239 237 235 234 229 220 217 221 218 210 211 213 199 181 180 184 185 190 195 188 177 176
330 315 328 348 346 336 334 339 342 339 328 317 6 67 82 101 115 122 133 142 145 150 161 171 183 198 207 205 201 201 200 194 186 178 177 172 163 162 167 171 166 167 177 196 159 143 140 145 159 161 148 149 210 272 303 306 297 302 297 278 268 262 250 240 233 227 224 223 218 211 212 225 228 217 204 206 213 203 181 184 201 206 197 188 182 178 180
2 0 9 7 349 340 351 359 347 340 7 25 353 293 245 200 175 175 182 182 180 184 187 187 193 207 211 208 207 208 204 195 184 175 172 168 166 168 172 169 168 173 177 133 119 134 144 154 167 175 182 206 239 265 288 297 301 306 300 283 274 265 250 241 237 229 222 217 209 201 206 219 226 222 212 208 210 207 196 197 207 211 202 193 195 196 195
20 13 10 7 356 350 357 350 320 312 358 13 298 265 241 212 196 198 196 190 195 204 199 186 185 196 203 203 207 206 198 192 191 187 178 171 170 175 173 164 164 179 196 183 148 151 165 182 184 185 199 241 261 272 285 294 295 296 296 292 285 270 255 255 257 236 221 218 217 214 214 216 217 216 213 209 207 203 198 197 203 205 200 197 197 197 198
39 19 356 343 335 330 327 323 320 326 331 300 267 253 237 218 210 210 201 195 206 218 212 191 187 197 205 205 200 190 181 181 188 190 185 179 178 178 173 162 164 181 209 218 176 168 179 195 197 194 203 231 256 270 279 278 278 285 290 288 279 265 257 271 291 256 227 226 225 220 219 221 218 211 208 210 210 203 199 202 206 205 202 202 201 200 201
98 202 248 246 243 250 260 268 273 267 254 244 242 241 238 241 255 262 252 238 240 240 229 208 197 203 211 207 194 182 182 188 195 195 193 191 189 186 180 172 173 189 213 223 183 166 170 183 194 196 202 224 249 264 266 261 268 281 284 277 268 259 253 252 246 232 228 235 237 228 222 221 216 209 209 215 216 208 204 208 210 207 207 211 216 215 211
72 185 236 235 226 221 219 226 241 249 248 248 257 277 293 300 299 289 274 261 257 259 260 252 226 210 214 217 213 204 196 193 200 204 202 198 196 194 190 183 184 194 209 221 211 192 186 192 198 200 208 230 254 264 254 242 249 266 270 263 257 254 252 248 238 228 226 229 232 231 228 223 216 212 215 216 213 209 209 213 215 212 208 210 213 214 212